CW9451 Weather Reports


Display with metric or nautical units.
time (UTC)temp
F
wind
direction
speed
MPH
gust
MPH
rain 1hr
in
rain 24hr
in
rain mn
in
humidity
%
barometer
mb
20260901170904 67 0.0 0.0 0.00 0.00 0.00 10 1020.7
20260901165904 66 0.0 0.0 0.00 0.00 0.00 10 1020.6
20260901164904 65 0.0 0.0 0.00 0.00 0.00 98 1020.4
20260901163909 65 0.0 0.0 0.00 0.00 0.00 96 1020.3
20260901161905 66 0.0 0.0 0.00 0.00 0.00 95 1020.1
20260901160909 67 0.0 0.0 0.00 0.00 0.00 93 1020.1
20260901154905 67 0.0 0.0 0.00 0.00 0.00 85 1019.8
20260901153904 67 0.0 0.0 0.00 0.00 0.00 85 1019.6
20260901152905 68 0.0 0.0 0.00 0.00 0.00 83 1019.5
20260901151904 69 0.0 0.0 0.00 0.00 0.00 84 1019.6
20260901150903 69 0.0 0.0 0.00 0.00 0.00 83 1019.5
20260901145908 70 0.0 0.0 0.00 0.00 0.00 83 1019.6
20260901143905 69 0.0 0.0 0.00 0.00 0.00 87 1019.4
20260901142905 70 0.0 0.0 0.00 0.00 0.00 84 1019.2
20260901141905 72 0.0 0.0 0.00 0.00 0.00 80 1019.2
20260901140906 72 0.0 0.0 0.00 0.00 0.00 79 1019.1
20260901135909 72 0.0 0.0 0.00 0.00 0.00 78 1019.1
20260901133905 73 0.0 0.0 0.00 0.00 0.00 77 1019.4
20260901132909 72 0.0 0.0 0.00 0.00 0.00 77 1019.2
20260901130904 73 0.0 0.0 0.00 0.00 0.00 75 1019.1
20260901125905 75 0.0 0.0 0.00 0.00 0.00 74 1019.3
20260901124904 74 0.0 0.0 0.00 0.00 0.00 75 1019.3
20260901123905 74 0.0 0.0 0.00 0.00 0.00 73 1019.4
20260901122904 75 0.0 0.0 0.00 0.00 0.00 76 1019.8
20260901121904 74 0.0 0.0 0.00 0.00 0.00 75 1019.7
20260901120905 73 0.0 0.0 0.00 0.00 0.00 78 1019.8
20260901115904 73 0.0 0.0 0.00 0.00 0.00 77 1019.7
20260901114905 74 0.0 0.0 0.00 0.00 0.00 71 1019.9
20260901113904 75 0.0 0.0 0.00 0.00 0.00 76 1020.3
20260901112903 73 0.0 0.0 0.00 0.00 0.00 77 1020.4
20260901111903 71 0.0 0.0 0.00 0.00 0.00 80 1020.5
20260901110903 71 0.0 0.0 0.00 0.00 0.00 82 1020.5
20260901105904 71 0.0 0.0 0.00 0.00 0.00 82 1020.6
20260901104904 70 0.0 0.0 0.00 0.00 0.00 85 1022.6
20260901103903 69 0.0 0.0 0.00 0.00 0.00 89 1020.7
20260901102905 67 0.0 0.0 0.00 0.00 0.00 94 1020.8
20260901101905 67 0.0 0.0 0.00 0.00 0.00 94 1020.7
20260901100909 67 0.0 0.0 0.00 0.00 0.00 95 1020.9
20260901094903 66 0.0 0.0 0.00 0.00 0.00 99 1020.9
20260901093908 66 0.0 0.0 0.00 0.00 0.00 98 1020.9
20260901091904 65 0.0 0.0 0.00 0.00 0.00 10 1021.0
20260901090904 65 0.0 0.0 0.00 0.00 0.00 10 1021.1
20260901085904 64 0.0 0.0 0.00 0.00 0.00 10 1021.0
20260901084904 64 0.0 0.0 0.00 0.00 0.00 10 1020.9
20260901083909 64 0.0 0.0 0.00 0.00 0.00 10 1020.9
20260901081904 64 0.0 0.0 0.00 0.00 0.00 10 1020.7
20260901080904 64 0.0 0.0 0.00 0.00 0.00 10 1020.8
20260901075905 63 0.0 0.0 0.00 0.00 0.00 10 1020.8
20260901074909 63 0.0 0.0 0.00 0.00 0.00 10 1020.6
20260901072908 63 0.0 0.0 0.00 0.00 0.00 10 1020.6
20260901065905 62 0.0 0.0 0.00 0.00 0.00 10 1020.4
20260901064904 62 0.0 0.0 0.00 0.00 0.00 10 1020.3
20260901063905 62 0.0 0.0 0.00 0.00 0.00 10 1020.3
20260901062904 62 0.0 0.0 0.00 0.00 0.00 10 1020.2
20260901061905 62 0.0 0.0 0.00 0.00 0.00 10 1020.2
20260901060904 62 0.0 0.0 0.00 0.00 0.00 10 1020.1
20260901055905 62 0.0 0.0 0.00 0.00 0.00 10 1020.1
20260901054905 61 0.0 0.0 0.00 0.00 0.00 10 1020.0
20260901053904 62 0.0 0.0 0.00 0.00 0.00 10 1020.0
20260901052904 62 0.0 0.0 0.00 0.00 0.00 10 1020.0
20260901051904 61 0.0 0.0 0.00 0.00 0.00 10 1019.9
20260901050903 61 0.0 0.0 0.00 0.00 0.00 10 1019.9
20260901045908 61 0.0 0.0 0.00 0.00 0.00 10 1019.8
20260901043904 61 0.0 0.0 0.00 0.00 0.00 10 1019.6
20260901042909 61 0.0 0.0 0.00 0.00 0.00 10 1019.5
20260901034904 60 0.0 0.0 0.00 0.00 0.00 10 1019.1
20260901033904 60 0.0 0.0 0.00 0.00 0.00 10 1018.9
20260901032905 60 0.0 0.0 0.00 0.00 0.00 10 1018.7
20260901031904 61 0.0 0.0 0.00 0.00 0.00 10 1018.7
20260901030905 61 0.0 0.0 0.00 0.00 0.00 10 1018.8
20260901025904 60 0.0 0.0 0.00 0.00 0.00 10 1018.7
20260901024904 60 0.0 0.0 0.00 0.00 0.00 10 1018.6
20260901023904 61 0.0 0.0 0.00 0.00 0.00 10 1018.5
20260901022905 61 0.0 0.0 0.00 0.00 0.00 10 1018.4
20260901021904 61 0.0 0.0 0.00 0.00 0.00 10 1018.4
20260901020904 61 0.0 0.0 0.00 0.00 0.00 10 1018.4
20260901015904 61 0.0 0.0 0.00 0.00 0.00 10 1018.3
20260901014904 61 0.0 0.0 0.00 0.00 0.00 10 1018.1
20260901013908 62 0.0 0.0 0.00 0.00 0.00 10 1018.2
20260901011904 62 0.0 0.0 0.00 0.00 0.00 10 1018.2
20260901010903 62 0.0 0.0 0.00 0.00 0.00 10 1018.2
20260901005904 62 0.0 0.0 0.00 0.00 0.00 10 1018.3
20260901004904 62 0.0 0.0 0.00 0.00 0.00 10 1018.3
20260901003904 62 0.0 0.0 0.00 0.00 0.00 10 1018.2
20260901002909 62 0.0 0.0 0.00 0.00 0.00 10 1018.2
20260901000904 62 0.0 0.0 0.00 0.00 0.00 10 1017.9
20260831235909 62 0.0 0.0 0.00 0.00 0.00 10 1018.0
20260831225904 61 0.0 0.0 0.00 0.00 0.00 10 1017.5
20260831224909 61 0.0 0.0 0.00 0.00 0.00 10 1017.5
20260831222904 61 0.0 0.0 0.00 0.00 0.00 10 1017.3
20260831221904 61 0.0 0.0 0.00 0.00 0.00 10 1017.0
20260831220904 61 0.0 0.0 0.00 0.00 0.00 10 1017.0
20260831215904 62 0.0 0.0 0.00 0.00 0.00 10 1016.9
20260831214904 62 0.0 0.0 0.00 0.00 0.00 10 1016.9
20260831213903 62 0.0 0.0 0.00 0.00 0.00 10 1016.8
20260831212908 62 0.0 0.0 0.00 0.00 0.00 10 1016.6
20260831210905 62 0.0 0.0 0.00 0.00 0.00 10 1016.6
20260831205904 62 0.0 0.0 0.00 0.00 0.00 10 1016.4
20260831204909 62 0.0 0.0 0.00 0.00 0.00 10 1016.3
20260831203904 62 0.0 0.0 0.00 0.00 0.00 10 1016.2
20260831202904 62 0.0 0.0 0.00 0.00 0.00 10 1016.0
20260831201904 62 0.0 0.0 0.00 0.00 0.00 10 1015.9
20260831200909 62 0.0 0.0 0.00 0.00 0.00 10 1015.7
20260831194904 62 0.0 0.0 0.00 0.00 0.00 10 1015.6
20260831193908 63 0.0 0.0 0.00 0.00 0.00 10 1015.4
20260831191904 63 0.0 0.0 0.00 0.00 0.00 10 1015.0
20260831190905 63 0.0 0.0 0.00 0.00 0.00 10 1014.8
20260831185909 63 0.0 0.0 0.00 0.00 0.00 10 1014.7
20260831183904 64 0.0 0.0 0.00 0.00 0.00 10 1014.7
20260831182904 64 0.0 0.0 0.00 0.00 0.00 10 1014.4
20260831181909 65 0.0 0.0 0.00 0.00 0.00 99 1014.2
20260831175906 65 0.0 0.0 0.00 0.00 0.00 99 1014.1
20260831174905 66 0.0 0.0 0.00 0.00 0.00 10 1014.0
20260831173905 66 0.0 0.0 0.00 0.00 0.00 99 1013.6
20260831172904 66 0.0 0.0 0.00 0.00 0.00 97 1013.4
20260831171905 67 0.0 0.0 0.00 0.00 0.00 94 1013.3